Regional Weather Roundup
Issued by NWS

Home | Current Version | Previous Version | Text Only | Print | Product List | Glossary On
Versions: 1 2 3 4 5 6 7 8 9 10 11 12 13 14 15 16 17 18 19 20 21 22 23 24 25 26 27 28 29 30 31 32 33 34 35 36 37 38 39 40 41 42 43 44 45 46 47 48 49 50
000
ASUS45 KCYS 300510
RWRWY

WYOMING REGIONAL WEATHER ROUNDUP
NATIONAL WEATHER SERVICE CHEYENNE WY
1100 PM MDT WED JUL 29 2015

NOTE:  "FAIR" INDICATES FEW OR NO CLOUDS BELOW 12,000 FEET
WITH NO SIGNIFICANT WEATHER AND/OR OBSTRUCTIONS TO VISIBILITY.

WYZ001-300600-
YELLOWSTONE NATIONAL PARK

CITY           SKY/WX    TMP DP  RH WIND       PRES   REMARKS
LK YELLOWSTONE   N/A     45  35  68 CALM      30.52R
W YELLOWSTONE  NOT AVBL

$$
WYZ002>013-054>058-071-098>099-300600-
NORTHERN WYOMING

CITY           SKY/WX    TMP DP  RH WIND       PRES   REMARKS
JACKSON        FAIR      46  39  76 N6        30.42R
CODY           FAIR      63  34  34 CALM      30.32R
GREYBULL       FAIR      66  36  32 SE5       30.22R
WORLAND        FAIR      58  30  34 CALM      30.23R
SHERIDAN       FAIR      55  45  68 S3        30.25R
BUFFALO        FAIR      61  38  42 W6        30.32R
GILLETTE       FAIR      53  39  59 SW3       30.26R
HULETT         FAIR      59  37  44 SE3       30.27R
NEWCASTLE      FAIR      61  37  41 MISG      30.26R

$$
WYZ014>020-022>026-101>103-300600-
CENTRAL WYOMING

CITY           SKY/WX    TMP DP  RH WIND       PRES   REMARKS
BIG PINEY      FAIR      56  30  37 N9        30.44R
PINEDALE       FAIR      52  32  46 NW9       30.45R
DUBOIS         FAIR      54  28  37 NW8       30.44S
LANDER         FAIR      63  31  30 NW9       30.31R
RIVERTON       FAIR      63  25  23 N6        30.31R
CASPER         FAIR      51  26  37 CALM      30.30R
DOUGLAS        FAIR      62  44  51 SE8       30.28S

$$
WYZ021-027>030-104>119-300600-
SOUTHERN WYOMING

CITY           SKY/WX    TMP DP  RH WIND       PRES   REMARKS
EVANSTON       FAIR      64  17  16 N5        30.44R
KEMMERER       FAIR      55  30  38 NW9       30.45S
FORT BRIDGER   CLEAR     59  16  18 W7        30.46S
ROCK SPRINGS   FAIR      64  13  13 NW7       30.40R
DIXON          FAIR      57  23  26 E10       30.41R
RAWLINS        FAIR      50  15  24 N6        30.40R
SARATOGA       FAIR      50  21  32 SE3       30.42S
LARAMIE        FAIR      62  46  55 S6        30.42S
CHEYENNE       MOCLDY    66  48  52 S9        30.35S
TORRINGTON     FAIR      67  52  58 E9        30.23R
PINE BLUFFS    FAIR      68  41  37 S17G24    30.30S

$$



USA.gov is the U.S. government's official web portal to all federal, state and local government web resources and services.